Weather History for KPSM - April, 2014

Change the Weather History Date:

Thursday, April 10, 2014

  Actual Average Record
Temperature  
Mean Temperature 46 °F -  
Max Temperature 63 °F 52 °F 69 °F (2005)
Min Temperature 29 °F 33 °F 18 °F (1985)
Degree Days  
Heating Degree Days 19    
Moisture  
Dew Point 17 °F    
Average Humidity 32    
Maximum Humidity 56    
Minimum Humidity 13    
Precipitation  
Precipitation 0.00 in - - ()
Sea Level Pressure  
Sea Level Pressure 30.03 in    
Wind  
Wind Speed 8 mph (SSW)    
Max Wind Speed 16 mph    
Max Gust Speed 23 mph    
Visibility 10 miles    
Events      
Averages and records for this station are not official NWS values.
T = Trace of Precipitation, MM = Missing Value Source: NWS Daily Summary

Daily Weather History Graph

Daily Weather History Graph

Search for Another Location

Airport or City:

Trip Planner

Search our weather history database for the weather conditions in past years. The results will help you decide how hot, cold, wet, or windy it might be!

Date:

Astronomy

Apr. 10, 2014 Rise Set
Actual Time 6:09 AM EDT 7:20 PM EDT
Civil Twilight 5:40 AM EDT 7:49 PM EDT
Nautical Twilight 5:05 AM EDT 8:24 PM EDT
Astronomical Twilight 4:28 AM EDT 9:01 PM EDT
Moon 2:54 PM EDT (4/10) 3:37 AM EDT (4/10)
Length of Visible Light 14h 08m
Length of Day
13h 10m
Waxing Gibbous, 79% of the Moon is Illuminated
Apr 10
Waxing Gibbous
Apr 15
Full
Apr 22
Last Quarter
Apr 29
New
May 6
First Quarter

Hourly Weather History & Observations

Time (EDT) Temp. Windchill Dew Point Humidity Pressure Visibility Wind Dir Wind Speed Gust Speed Precip Events Conditions
12:58 AM 35.1 °F 29.3 °F 10.9 °F 37% 29.99 in 10.0 mi West 6.9 mph - N/A   Clear
1:58 AM 34.0 °F 28.8 °F 13.1 °F 42% 29.99 in 10.0 mi WSW 5.8 mph - N/A   Clear
2:58 AM 31.8 °F 28.5 °F 13.5 °F 47% 30.01 in 10.0 mi South 3.5 mph - N/A   Clear
3:58 AM 31.5 °F 24.9 °F 13.6 °F 48% 30.04 in 10.0 mi West 6.9 mph - N/A   Clear
4:58 AM 32.9 °F - 14.0 °F 46% 30.06 in 10.0 mi SW 2.3 mph - N/A   Clear
5:58 AM 29.1 °F 25.4 °F 15.1 °F 56% 30.07 in 10.0 mi South 3.5 mph - N/A   Partly Cloudy
6:58 AM 30.6 °F - 14.9 °F 52% 30.11 in 10.0 mi SSW 2.3 mph - N/A   Scattered Clouds
7:58 AM 36.3 °F 31.6 °F 15.1 °F 42% 30.12 in 10.0 mi SW 5.8 mph - N/A   Partly Cloudy
8:58 AM 42.6 °F 37.8 °F 16.3 °F 35% 30.14 in 10.0 mi SW 8.1 mph - N/A   Clear
9:58 AM 47.5 °F - 17.4 °F 30% 30.14 in 10.0 mi SW 5.8 mph - N/A   Clear
10:58 AM 51.4 °F - 16.9 °F 25% 30.12 in 10.0 mi South 8.1 mph - N/A   Partly Cloudy
11:58 AM 54.9 °F - 15.4 °F 21% 30.09 in 10.0 mi South 10.4 mph - N/A   Scattered Clouds
12:58 PM 57.9 °F - 17.2 °F 20% 30.07 in 10.0 mi SSW 11.5 mph - N/A   Partly Cloudy
1:58 PM 60.3 °F - 14.9 °F 17% 30.04 in 10.0 mi SSW 16.1 mph 20.7 mph N/A   Partly Cloudy
2:58 PM 61.9 °F - 14.9 °F 16% 30.02 in 10.0 mi SSW 11.5 mph 20.7 mph N/A   Partly Cloudy
3:58 PM 63.3 °F - 11.8 °F 13% 29.99 in 10.0 mi SSW 13.8 mph 18.4 mph N/A   Partly Cloudy
4:58 PM 62.8 °F - 15.8 °F 16% 29.96 in 10.0 mi SSW 13.8 mph 21.9 mph N/A   Partly Cloudy
5:58 PM 61.2 °F - 18.7 °F 19% 29.96 in 10.0 mi SSW 13.8 mph 23.0 mph N/A   Scattered Clouds
6:56 PM 57.0 °F - 21.6 °F 25% 29.96 in 10.0 mi SSW 15.0 mph 23.0 mph N/A   Mostly Cloudy
7:58 PM 53.6 °F - 22.3 °F 30% 29.99 in 10.0 mi SSW 12.7 mph - N/A   Mostly Cloudy
8:58 PM 52.0 °F - 22.8 °F 32% 29.99 in 10.0 mi SSW 12.7 mph 20.7 mph N/A   Mostly Cloudy
9:58 PM 51.1 °F - 21.9 °F 32% 29.99 in 10.0 mi SSW 12.7 mph 20.7 mph N/A   Mostly Cloudy
10:58 PM 49.6 °F - 23.7 °F 36% 29.98 in 10.0 mi SSW 11.5 mph 18.4 mph N/A   Mostly Cloudy
11:58 PM 48.7 °F - 26.4 °F 42% 29.96 in 10.0 mi SSW 10.4 mph - N/A   Mostly Cloudy